Find Starlink 32107

NORAD ID: 59694 Int'l Des: 2024-086 Owner: SPXS Country: US Constellation: starlink operational
LEOCIRCULAR

实时位置

正在加载3D地球...

关于 Starlink 32107

正在加载描述...

即将过境

Passes for default location (London). Set your location on the main map for personalized predictions.

高度历史

Loading altitude history...

两行轨道根数

1 59694U 24086N 26124.95121424 .00000937 00000-0 43564-4 0 9991
2 59694 43.0009 102.4146 0001224 272.8707 87.2004 15.27585327112719
Epoch: May 4, 2026 • Age: 32 hours

当前状态

高度 486.9 km
速度 7.63 km/s
星下点 42.59°N, 127.43°W
发射日期 May 8, 2024
运行时间 1.9 years
类型 internet

技术详情

分类 Payload
质量 730.00 kg
干质量 700.00 kg
总质量 730.00 kg
长度 0.30 m
直径 4.10 m
跨度 29.00 m
形状 Box + pan
制造商 SPXS
平台类型 Starlink V2M
阶段状态 In Orbit
所有者/国家 SPXS/US

Most Searched